CAPE
0 0 0 0 0 0 0 0 0 0 0 0 0 0 0 0 0 0 0 0 0 85 600 812 1294 1141 844 451 149 34 0 0 0 0 0 0 0 0 0 0 0 0 0
0 0 0 0 0 0 0 0 0 0 0 0 0 0 0 0 0 0 0 0 0 0 107 458 406 291 169 9 0 0 0 0 0 0 0 0 0 0 0 0 0 0 0
0 0 0 0 0 0 0 0 0 0 0 0 0 0 0 0 31 0 0 0 0 0 5 108 98 38 0 0 0 0 0 0 0 0 0 0 0 0 0 0 0 0 1
61 1 6 3 0 0 0 0 0 0 0 0 0 0 0 19 125 367 54 0 0 0 0 0 0 0 0 0 0 0 0 0 0 0 0 0 0 0 0 0 0 1 2
456 227 120 14 85 23 10 0 15 15 28 42 39 123 410 290 472 494 389 51 2 6 0 0 0 0 0 0 0 0 0 0 0 0 0 0 0 0 0 0 1 1 3
410 771 213 113 134 245 191 97 97 100 101 60 410 452 360 504 475 305 397 321 267 139 0 0 0 0 0 0 0 0 0 0 0 0 0 0 0 0 0 2 4 6 8
524 747 578 305 361 270 255 196 167 189 195 265 267 125 189 314 355 307 354 316 412 262 0 0 0 0 0 0 0 0 0 0 0 0 0 0 0 0 2 4 5 9 10
1056 910 831 668 584 467 235 321 328 337 283 194 314 98 369 258 286 306 318 328 332 308 0 0 0 0 0 0 0 0 0 0 0 0 0 0 0 1 2 4 6 11 15
1501 1270 978 1018 716 680 441 424 462 392 456 291 337 274 222 347 240 76 345 137 0 0 0 0 0 0 0 0 0 0 0 0 0 0 0 0 0 3 3 4 6 9 14
1603 1587 1431 1081 1085 926 757 507 547 548 429 471 272 278 103 3 202 6 0 0 0 0 0 0 0 0 0 0 0 0 0 0 0 0 0 0 2 3 3 6 12 15 12
1603 1629 1544 1474 1307 1108 1055 704 679 662 568 565 709 521 261 1 0 0 0 0 0 0 0 0 0 0 0 0 0 0 0 0 0 0 0 0 0 2 4 8 10 11 12
1342 1500 1548 1493 1562 1397 1189 816 745 740 733 651 698 570 847 675 90 0 0 0 0 0 0 0 0 0 0 0 0 0 0 0 0 0 0 0 0 0 1 7 10 9 11
1543 1456 1507 1508 1484 1607 1440 1008 835 860 871 729 613 756 638 599 89 2 0 0 0 0 0 0 0 0 0 0 0 0 0 0 0 0 0 0 0 0 0 3 8 11 10
1838 1790 1601 1607 1554 1602 1565 1256 1047 988 889 857 833 724 540 435 68 29 77 0 0 0 0 0 0 0 0 0 0 0 0 0 0 0 0 0 0 0 0 1 5 5 12
1955 1840 1772 1762 1727 1721 1631 1456 1221 1080 1002 912 939 553 540 262 8 0 0 0 0 0 0 0 0 0 0 0 0 0 0 0 0 0 0 0 0 0 0 0 1 9 4
1697 1651 1845 1905 1895 1832 1753 1506 1419 1150 1058 1106 1117 938 110 0 0 0 0 0 0 0 0 0 0 0 0 0 0 0 0 0 0 0 0 0 0 0 0 0 0 6 4
1463 1679 1545 1775 1988 1921 1698 1536 1578 1484 1285 1358 1185 545 0 0 0 0 0 0 0 0 0 0 0 0 0 0 0 0 0 0 0 0 0 0 0 0 0 0 2 2 4
1418 1413 1691 1775 1934 1954 1588 1639 1587 1510 1423 1407 374 11 0 0 0 0 0 0 0 0 0 0 0 0 0 0 0 0 0 0 0 0 0 0 0 0 0 0 0 0 0
1455 1600 1480 1490 1389 1671 1635 1524 1475 1374 1250 841 13 0 0 0 0 0 0 0 0 0 0 0 0 0 0 0 0 0 0 0 0 0 0 0 0 0 0 0 0 0 0
764 1290 1355 1105 889 816 659 657 367 246 277 16 0 0 0 0 0 0 0 0 0 0 0 0 0 0 0 0 0 0 0 0 0 0 0 0 0 0 0 0 0 0 1
1 122 796 729 801 703 366 171 14 0 0 0 0 0 0 0 0 0 0 0 0 0 0 0 0 0 0 0 0 0 0 0 0 0 0 0 0 0 0 1 1 1 0
0 0 0 129 332 63 7 26 0 0 0 0 0 0 0 0 0 0 0 0 0 0 0 0 0 0 0 0 0 0 0 0 0 0 0 0 0 0 0 0 4 0 1
0 0 0 0 1 1 2 2 0 0 0 0 0 0 0 0 0 0 0 0 0 0 0 0 0 0 0 0 0 0 0 0 0 0 0 1 0 0 0 0 0 0 0
0 0 0 0 1 0 1 1 1 0 0 0 0 0 0 0 0 0 0 0 0 0 0 0 0 0 0 0 0 0 0 0 0 0 0 0 0 0 0 0 0 0 0
0 0 1 0 1 0 1 0 0 1 1 1 0 0 0 0 0 0 0 0 0 0 0 0 0 0 0 0 0 0 0 0 0 0 0 0 0 0 0 0 0 0 0
1 1 0 1 1 0 1 1 0 0 0 0 0 0 0 0 0 0 0 0 0 0 0 0 0 0 0 0 0 0 0 0 0 0 0 0 0 0 0 0 0 0 0
CIN
0 0 0 0 0 0 0 0 0 0 0 0 0 0 0 0 0 0 0 0 0 -222 -86 -47 -9 -6 -15 -40 -131 -256 -51 0 0 0 0 0 0 0 0 0 0 0 0
0 0 0 0 0 0 0 0 0 0 0 0 0 0 0 0 0 0 0 0 0 -45 -199 -71 -69 -87 -137 -102 0 0 0 0 0 0 0 0 0 0 0 0 0 0 0
0 0 0 0 0 0 0 0 0 0 0 0 0 0 0 0 -227 0 0 0 0 0 -188 -183 -178 -246 -9 0 0 0 0 0 0 0 0 0 0 0 0 0 0 0 0
-484 -115 -464 -348 0 0 0 0 0 0 0 0 -98 -81 0 -312 -142 -86 -278 0 0 0 0 0 0 0 0 0 0 0 0 0 0 0 0 0 0 0 0 0 0 0 0
-309 -359 -384 -550 -449 -224 -154 0 -487 -534 -491 -415 -393 -267 -127 -143 -66 -47 -123 -258 -173 -173 0 0 0 0 0 0 0 0 0 0 0 0 0 0 0 0 0 0 0 0 0
-316 -237 -335 -373 -337 -265 -301 -397 -351 -349 -292 -280 -91 -103 -126 -105 -105 -127 -79 -92 -114 -225 0 0 0 0 0 0 0 0 0 0 0 0 0 0 0 0 0 0 0 0 0
-316 -246 -289 -308 -274 -256 -249 -274 -263 -229 -221 -167 -113 -190 -182 -143 -117 -138 -106 -102 -74 -145 0 0 0 0 0 0 0 0 0 0 0 0 0 0 0 0 0 0 0 0 0
-271 -234 -244 -271 -263 -272 -311 -268 -226 -211 -204 -228 -127 -186 -72 -135 -187 -173 -153 -143 -139 -145 0 0 0 0 0 0 0 0 0 0 0 0 0 0 0 0 0 0 0 0 0
-244 -236 -247 -231 -266 -275 -304 -289 -263 -234 -192 -272 -204 -171 -113 -124 -189 -173 -194 -260 0 0 0 0 0 0 0 0 0 0 0 0 0 0 0 0 0 0 0 0 0 0 0
-237 -249 -253 -264 -240 -250 -273 -315 -298 -265 -246 -236 -299 -238 -286 -60 -183 -285 0 0 0 0 0 0 0 0 0 0 0 0 0 0 0 0 0 0 0 0 0 0 0 0 0
-227 -229 -235 -241 -245 -246 -247 -314 -277 -293 -274 -232 -228 -270 -286 -147 0 0 0 0 0 0 0 0 0 0 0 0 0 0 0 0 0 0 0 0 0 0 0 0 0 0 0
-226 -243 -257 -247 -225 -221 -254 -315 -300 -268 -246 -210 -245 -281 -207 -183 -446 0 0 0 0 0 0 0 0 0 0 0 0 0 0 0 0 0 0 0 0 0 0 0 0 0 0
-205 -247 -282 -273 -252 -229 -211 -256 -267 -255 -234 -224 -261 -253 -248 -267 -519 -470 0 0 0 0 0 0 0 0 0 0 0 0 0 0 0 0 0 0 0 0 0 0 0 0 0
-175 -216 -258 -242 -255 -226 -196 -203 -212 -229 -224 -227 -207 -246 -279 -312 -582 -600 -397 0 0 0 0 0 0 0 0 0 0 0 0 0 0 0 0 0 0 0 0 0 0 0 0
-114 -138 -172 -202 -205 -206 -198 -184 -164 -168 -182 -211 -199 -271 -264 -379 -569 0 0 0 0 0 0 0 0 0 0 0 0 0 0 0 0 0 0 0 0 0 0 0 0 0 0
-168 -163 -135 -110 -119 -152 -143 -163 -121 -147 -134 -149 -152 -160 -374 0 0 0 0 0 0 0 0 0 0 0 0 0 0 0 0 0 0 0 0 0 0 0 0 0 0 0 0
-157 -138 -168 -125 -95 -99 -137 -127 -81 -68 -92 -89 -129 -276 0 0 0 0 0 0 0 0 0 0 0 0 0 0 0 0 0 0 0 0 0 0 0 0 0 0 -12 -6 -6
-125 -142 -132 -116 -99 -91 -144 -93 -77 -69 -67 -71 -321 -614 0 0 0 0 0 0 0 0 0 0 0 0 0 0 0 0 0 0 0 0 0 0 0 0 0 0 0 0 0
-90 -86 -122 -128 -135 -116 -114 -100 -88 -76 -90 -174 -563 0 0 0 0 0 0 0 0 0 0 0 0 0 0 0 0 0 0 0 0 0 0 0 0 0 0 0 0 0 0
-146 -100 -124 -158 -167 -189 -234 -243 -302 -300 -303 -256 0 0 0 0 0 0 0 0 0 0 0 0 0 0 0 0 0 0 0 0 0 0 0 0 0 0 0 -1 0 -3 0
-68 -251 -120 -164 -157 -189 -278 -351 -543 0 0 0 0 0 0 0 0 0 0 0 0 0 0 0 0 0 0 0 0 0 0 0 0 0 0 0 0 0 0 -1 -7 -2 0
0 0 0 -203 -154 -325 -468 -420 0 0 0 0 0 0 0 0 0 0 0 0 0 0 0 0 0 0 0 0 0 0 0 0 0 0 0 0 0 0 -1 0 -8 0 0
0 0 0 0 0 0 0 0 0 0 0 0 0 0 0 0 0 0 0 0 0 0 0 0 0 0 0 0 0 0 0 0 0 0 0 0 0 0 0 0 -7 0 0
0 0 0 0 0 0 0 0 0 0 0 0 0 0 0 0 0 0 0 0 0 0 0 0 0 0 0 0 0 0 0 0 0 0 0 0 0 0 0 0 0 0 0
0 0 0 0 0 0 0 0 0 0 0 0 0 0 0 0 0 0 0 0 0 0 0 0 0 0 0 0 0 0 0 0 0 0 0 0 0 0 0 0 0 0 0
0 0 0 0 0 0 0 0 0 0 0 0 0 0 0 0 0 0 0 0 0 0 0 0 0 0 0 0 0 0 0 0 0 0 0 0 0 0 0 0 0 0 0
Wind_Speed
7 6 7 6 6 5 5 5 5 5 6 6 6 6 6 7 5 4 4 9 8 9 9 8 7 7 6 5 5 4 3 4 5 6 6 6 6 7 7 8 9 11 12
7 7 7 7 6 7 7 6 7 6 6 5 6 7 5 4 5 7 4 5 9 8 9 10 9 8 7 6 4 4 5 5 6 5 6 6 7 8 9 11 12 13 14
7 9 7 7 8 7 8 6 7 5 5 5 7 5 5 6 5 4 6 5 5 9 10 9 9 8 7 6 6 6 7 6 6 6 7 8 10 11 12 13 14 15 16
8 7 8 7 8 7 8 7 7 5 6 5 5 5 5 5 6 6 6 5 4 4 6 9 9 8 7 7 7 6 5 5 5 6 8 9 11 12 13 14 15 16 17
11 10 8 8 7 7 8 8 5 6 5 4 5 5 5 6 6 4 7 6 7 6 5 9 10 10 9 9 8 7 6 5 5 5 7 8 10 12 14 15 16 17 18
14 8 8 9 7 5 6 7 7 4 5 5 4 5 4 4 4 5 5 5 6 8 7 8 6 5 9 10 9 8 7 6 6 5 7 9 11 13 14 16 17 18 18
16 13 7 8 8 9 9 9 5 7 5 5 3 2 1 4 6 5 5 5 6 7 8 6 5 4 4 10 10 9 7 7 6 5 6 9 12 14 15 16 17 19 19
17 14 13 10 11 8 9 11 11 4 5 6 5 2 2 4 4 6 5 5 7 5 8 8 7 8 6 4 6 10 10 7 6 6 8 11 12 14 15 17 18 20 21
16 18 15 12 10 8 10 11 11 13 10 5 8 6 3 6 2 1 7 5 6 5 6 7 7 7 6 5 7 8 9 7 4 5 8 10 12 14 17 18 18 19 20
16 18 17 16 13 10 11 11 9 11 8 12 2 8 3 5 4 1 2 2 4 5 5 3 5 6 8 7 11 11 10 6 4 6 8 11 14 17 18 18 18 18 18
14 16 16 15 15 11 13 12 12 12 12 9 11 4 3 2 3 3 3 2 1 3 5 6 6 5 7 7 6 9 9 4 2 3 6 11 15 16 16 17 18 18 19
10 14 17 16 15 15 14 12 13 14 12 12 9 8 11 11 6 5 3 2 5 4 3 5 5 5 6 7 9 12 7 3 4 2 5 8 12 13 14 16 17 17 19
10 15 17 16 14 16 16 10 12 14 14 13 12 12 9 11 4 4 5 3 4 3 2 1 4 6 6 5 7 8 8 9 6 4 6 6 9 11 12 14 16 18 19
14 17 17 17 17 16 15 14 11 11 13 13 16 13 10 9 5 5 7 6 1 2 1 4 2 4 5 5 7 10 5 10 7 7 7 4 8 10 12 14 15 17 19
8 12 16 17 16 17 15 16 11 13 12 13 14 11 11 7 5 5 5 5 6 6 4 4 2 3 5 5 6 5 4 10 6 2 2 4 9 9 11 14 15 17 19
8 8 13 17 16 14 15 15 14 10 12 11 12 13 8 5 6 5 5 4 2 3 3 2 1 5 6 5 6 5 2 4 7 2 3 6 7 9 12 15 14 15 19
7 7 9 12 15 15 14 13 15 14 14 14 12 12 12 10 7 5 3 1 1 2 4 2 3 5 3 6 4 4 5 4 3 6 6 9 8 9 11 11 9 11 15
7 8 7 10 13 14 13 16 16 14 14 15 11 11 11 9 11 10 8 10 10 4 4 8 4 3 4 3 5 5 2 3 3 6 11 9 9 10 10 7 7 10 18
7 7 7 10 11 12 13 14 14 14 14 13 15 15 14 14 12 9 10 9 7 4 4 5 4 2 3 2 4 3 3 3 2 8 8 9 12 12 5 10 7 14 20
7 7 7 8 8 7 7 6 7 9 9 9 10 12 14 15 12 11 10 10 8 8 4 4 3 3 3 1 3 1 2 2 3 3 5 6 8 12 11 11 8 15 21
8 7 6 6 6 8 7 9 8 8 8 6 7 10 10 10 13 11 9 8 9 7 7 5 3 2 3 2 3 2 1 2 3 2 3 4 3 3 5 8 6 15 21
8 7 8 5 5 4 9 13 12 10 10 11 11 9 9 12 11 9 9 9 9 13 9 6 4 3 4 5 3 3 1 3 3 2 5 4 2 4 5 5 9 15 20
6 7 7 6 6 5 12 14 15 10 11 11 12 10 8 8 13 10 12 12 9 10 6 7 7 4 4 5 6 4 2 2 1 3 2 2 2 5 7 4 9 15 21
4 5 6 6 5 3 7 12 15 10 10 11 12 15 14 15 14 16 13 11 7 8 6 6 7 6 6 6 5 4 3 2 1 2 4 2 2 5 4 3 7 14 21
3 3 5 6 5 6 6 7 1 5 6 6 11 11 13 13 17 19 15 13 10 8 13 19 16 15 14 11 8 3 2 2 2 2 3 1 3 4 3 3 2 13 18
3 3 5 6 6 7 6 11 8 6 6 5 6 4 8 10 16 14 13 14 11 9 10 9 8 9 9 9 10 4 3 3 1 2 1 3 3 4 4 3 2 6 7
Wind_Direction
182 163 168 169 174 167 180 183 188 203 220 223 225 228 225 233 167 158 165 188 166 151 143 142 141 139 130 127 118 108 73 48 38 34 39 28 37 16 2 350 342 336 330
177 178 173 175 178 179 187 183 194 200 217 214 225 211 217 218 239 162 170 183 163 164 160 152 153 153 149 145 131 112 93 77 59 43 34 39 19 5 356 346 335 328 325
178 186 172 178 186 183 183 182 203 194 207 217 213 217 219 228 220 187 173 186 173 179 174 168 163 163 164 158 139 115 98 79 56 34 16 1 356 347 340 336 331 326 322
176 187 190 180 189 180 188 192 198 194 202 199 207 221 214 219 217 164 164 168 174 180 182 174 176 178 162 158 139 127 108 81 52 28 16 359 349 344 337 330 326 322 318
192 183 193 196 179 189 187 193 196 180 185 198 216 220 204 209 206 176 161 178 188 180 171 180 180 182 175 168 158 148 132 103 69 32 17 0 348 338 330 326 321 317 314
199 175 189 195 190 180 181 183 182 188 175 194 202 195 190 194 191 191 196 190 189 184 172 176 175 188 181 171 164 158 144 112 80 44 11 351 340 330 324 318 315 313 312
195 197 189 193 193 201 194 190 172 185 208 173 137 316 343 207 206 202 204 214 212 182 169 172 170 170 179 174 168 161 139 118 93 40 360 341 332 325 322 320 320 317 314
189 197 199 200 202 198 194 193 192 170 192 180 157 124 228 312 257 215 206 220 216 170 168 172 173 170 173 155 158 151 133 119 83 26 352 333 328 326 327 326 326 324 318
187 195 200 199 203 195 206 200 194 193 203 201 189 149 174 219 172 254 216 207 181 163 155 162 160 154 142 129 122 123 121 110 74 8 344 331 329 329 326 325 328 321 319
192 194 197 200 199 202 206 208 198 199 182 207 211 207 147 148 176 250 314 178 171 157 165 171 149 132 133 140 146 150 155 151 47 7 345 334 327 326 327 329 326 320 319
196 196 198 198 205 204 213 204 203 201 208 203 207 173 186 154 144 130 209 215 7 202 177 148 150 152 135 132 140 162 164 125 43 9 345 326 329 334 333 328 323 322 320
199 196 201 204 206 208 210 206 203 204 208 212 207 200 204 200 182 162 145 192 178 234 189 162 156 145 139 145 152 158 164 140 120 98 304 320 334 335 334 329 324 323 319
203 207 202 203 207 211 211 203 203 207 206 208 203 209 213 216 168 141 138 168 155 210 153 178 184 147 144 129 144 150 131 146 157 228 252 299 327 329 325 319 322 321 321
205 205 207 209 210 209 210 207 205 208 208 210 210 208 208 215 181 169 183 143 142 142 209 211 157 155 139 138 148 134 157 168 210 241 232 292 309 320 320 319 321 319 321
204 206 205 206 206 208 203 207 208 212 208 210 213 201 203 205 189 171 158 156 161 186 200 202 158 164 127 128 136 136 143 194 268 6 222 294 306 315 319 318 318 320 324
195 189 193 202 205 203 204 202 210 207 208 210 210 204 186 167 178 168 167 157 204 135 170 145 174 138 136 129 130 127 97 64 42 81 208 291 290 307 321 315 318 323 331
205 202 188 197 205 205 200 200 209 212 212 211 207 195 183 158 169 151 139 65 250 169 143 100 110 127 106 124 107 75 61 75 20 337 349 328 328 331 316 318 313 341 333
213 212 201 199 203 206 198 203 209 210 211 209 192 176 175 166 162 165 161 174 160 208 137 133 128 121 109 113 117 89 54 53 350 341 347 340 343 328 328 326 43 347 339
245 219 196 198 200 202 201 204 207 209 209 201 186 181 172 166 169 188 191 189 153 142 120 137 143 117 107 144 79 47 41 357 332 336 320 1 342 327 10 20 12 352 339
305 242 200 195 197 189 185 183 184 193 202 191 183 179 169 171 182 184 188 182 157 137 124 118 107 114 121 108 100 150 350 310 302 322 23 339 329 320 13 353 353 339 338
328 329 285 212 203 201 191 172 170 169 168 163 162 160 171 176 155 182 170 185 168 144 143 148 122 111 139 104 153 204 177 282 294 78 354 316 316 13 346 333 321 337 339
329 338 323 287 228 206 184 173 168 175 165 168 170 164 157 158 155 171 169 206 187 155 156 144 155 147 178 135 141 151 138 15 349 338 352 296 25 346 336 314 326 345 343
320 319 316 330 293 234 188 187 173 174 173 175 164 157 155 152 141 136 116 102 77 80 123 133 147 153 152 152 142 137 145 113 261 344 320 294 26 336 326 302 340 350 350
299 291 293 293 282 276 256 208 183 172 177 173 174 167 164 160 159 145 139 120 112 92 96 102 111 113 117 122 123 131 131 128 296 74 357 315 328 305 289 298 354 351 357
286 269 281 282 264 268 208 147 135 151 150 160 158 165 158 166 160 152 142 132 115 101 86 94 99 103 103 105 103 99 93 91 153 108 23 333 294 296 288 279 304 351 359
267 302 295 274 258 257 214 183 152 130 126 126 120 143 147 152 153 155 142 141 136 130 121 109 96 98 102 110 104 92 89 106 21 102 16 352 302 333 329 291 317 359 355